Date String (YYYY-MM-DD hh:mm:ss) UTC,Instrument flags,absolute air pressure of the measurement (hPa),sample flow rate (lpm),inlet stack bypass flow (lpm),air temperature of the measurement (°C),ambient temperature measured by the external sensor (°C),aerosol sample conditioner tube jacket temperature (°C),OPC LED temperature (°C),internal box temperature (°C),relative humidity of the measurement (%),span deviation,mass concentration of particles derived from Lorenz-Mie calculation of OPC scattering (μg/m³),mass concentration of particles derived from Lorenz-Mie calculation of OPC scattering (μg/m³),mass concentration of particles derived from Lorenz-Mie calculation of OPC scattering (μg/m³)
DateTimeUTC,F1_M11,P_M11,Q1_M11,Q2_M11,T1_M11,T2_M11,T3_M11,T4_M11,T5_M11,U1_M11,ZSPAN_M11,X0_M11,X2_M11,X1_M11
2023-11-15 09:00:00,SystemResetWarning,0832.7,5.00,000.00,027.0,026.0,000.0,035.4,028.5,8.5,0000.0,0006.83,0002.83,0002.42
2023-11-15 09:01:00,SystemResetWarning,0832.7,5.00,000.00,027.0,026.0,000.0,035.4,028.5,8.6,0000.0,0006.80,0002.82,0002.40
2023-11-15 09:02:00,SystemResetWarning,0832.6,5.00,000.00,027.0,026.0,000.0,035.4,028.4,8.6,0000.0,0006.71,0002.78,0002.39
2023-11-15 09:03:00,SystemResetWarning,0832.6,5.01,000.00,027.0,026.0,000.0,035.4,028.4,8.5,0000.0,0006.75,0002.79,0002.39
2023-11-15 09:04:00,SystemResetWarning,0832.7,4.99,000.00,027.0,026.1,000.0,035.4,028.5,8.5,0000.0,0006.76,0002.79,0002.38
2023-11-15 09:05:00,SystemResetWarning,0832.7,4.99,000.00,027.0,026.1,000.0,035.4,028.5,8.5,0000.0,0006.75,0002.77,0002.36
2023-11-15 09:06:00,SystemResetWarning,0832.7,5.00,000.00,027.0,026.1,000.0,035.4,028.5,8.5,0000.0,0006.86,0002.82,0002.38
2023-11-15 09:07:00,SystemResetWarning,0832.7,4.99,000.00,027.0,026.1,000.0,035.4,028.5,8.5,0000.0,0006.59,0002.88,0002.40
2023-11-15 09:08:00,SystemResetWarning,0832.7,5.00,000.00,027.0,026.0,000.0,035.4,028.5,8.6,0000.0,0005.51,0002.90,0002.40
2023-11-15 09:09:00,SystemResetWarning,0832.7,5.00,000.00,027.0,026.0,000.0,035.4,028.5,8.6,0000.0,0004.83,0002.89,0002.40
2023-11-15 09:10:00,SystemResetWarning,0832.7,5.00,000.00,027.0,026.0,000.0,035.4,028.5,8.5,0000.0,0005.01,0002.95,0002.42
2023-11-15 09:11:00,SystemResetWarning,0832.9,5.01,000.00,027.0,026.0,000.0,035.4,028.5,8.5,0000.0,0005.21,0002.99,0002.45
2023-11-15 09:12:00,SystemResetWarning,0832.8,5.01,000.00,027.0,026.0,000.0,035.4,028.5,8.6,0000.0,0006.16,0003.01,0002.46
2023-11-15 09:13:00,SystemResetWarning,0832.8,5.00,000.00,027.0,026.1,000.0,035.4,028.5,8.6,0000.0,0006.70,0003.07,0002.49
2023-11-15 09:14:00,SystemResetWarning,0832.8,4.99,000.00,027.0,026.0,000.0,035.4,028.5,8.6,0000.0,0006.72,0003.08,0002.50
2023-11-15 09:15:00,SystemResetWarning,0832.8,4.99,000.00,027.0,026.0,000.0,035.4,028.5,8.6,0000.0,0006.80,0003.09,0002.52
2023-11-15 09:16:00,SystemResetWarning,0832.8,5.00,000.00,027.0,026.0,000.0,035.4,028.5,8.6,0000.0,0007.12,0003.11,0002.54
2023-11-15 09:17:00,SystemResetWarning,0833.3,5.01,000.00,027.0,026.0,000.0,035.4,028.5,8.6,0000.0,0007.11,0003.10,0002.56
2023-11-15 09:18:00,SystemResetWarning,0833.3,5.00,000.00,027.0,026.0,000.0,035.4,028.4,8.6,0000.0,0007.16,0003.11,0002.56
2023-11-15 09:19:00,SystemResetWarning,0832.9,5.00,000.00,027.0,026.0,000.0,035.4,028.4,8.6,0000.0,0007.02,0003.09,0002.57
2023-11-15 09:20:00,SystemResetWarning,0833.0,5.01,000.00,027.0,026.0,000.0,035.4,028.4,8.6,0000.0,0006.39,0003.10,0002.57
2023-11-15 09:21:00,SystemResetWarning,0833.1,5.00,000.00,027.0,026.0,000.0,035.4,028.5,8.6,0000.0,0006.69,0003.09,0002.59
2023-11-15 09:22:00,SystemResetWarning,0832.9,4.99,000.00,027.0,026.0,000.0,035.4,028.5,8.7,0000.0,0006.90,0003.02,0002.59
2023-11-15 09:23:00,SystemResetWarning,0832.9,4.99,000.00,027.0,026.1,000.0,035.4,028.5,8.7,0000.0,0006.39,0003.04,0002.61
2023-11-15 09:24:00,SystemResetWarning,0832.9,4.99,000.00,027.0,026.1,000.0,035.4,028.5,8.8,0000.0,0005.78,0003.05,0002.60
2023-11-15 09:25:00,SystemResetWarning,0832.9,5.01,000.00,027.0,026.1,000.0,035.4,028.5,8.8,0000.0,0006.41,0003.09,0002.61
2023-11-15 09:26:00,SystemResetWarning,0833.1,5.01,000.00,027.0,026.1,000.0,035.4,028.4,8.7,0000.0,0006.94,0003.11,0002.62
2023-11-15 09:27:00,SystemResetWarning,0833.1,5.00,000.00,027.0,026.1,000.0,035.4,028.4,8.7,0000.0,0006.81,0003.12,0002.63
2023-11-15 09:28:00,SystemResetWarning,0833.2,4.99,000.00,027.0,026.1,000.0,035.4,028.4,8.7,0000.0,0006.74,0003.11,0002.63
2023-11-15 09:29:00,SystemResetWarning,0832.9,4.99,000.00,027.0,026.1,000.0,035.4,028.5,8.7,0000.0,0006.76,0003.11,0002.64
2023-11-15 09:30:00,SystemResetWarning,0833.0,5.00,000.00,027.0,026.0,000.0,035.4,028.5,8.8,0000.0,0006.71,0003.12,0002.65
2023-11-15 09:31:00,SystemResetWarning,0833.1,5.00,000.00,027.0,026.0,000.0,035.4,028.5,8.8,0000.0,0006.87,0003.15,0002.67
2023-11-15 09:32:00,SystemResetWarning,0833.0,5.01,000.00,027.0,026.0,000.0,035.4,028.4,8.9,0000.0,0006.61,0003.16,0002.68
2023-11-15 09:33:00,SystemResetWarning,0833.0,5.01,000.00,027.0,026.0,000.0,035.4,028.4,8.9,0000.0,0006.07,0003.18,0002.70
2023-11-15 09:34:00,SystemResetWarning,0833.3,5.00,000.00,027.0,026.0,000.0,035.4,028.4,8.9,0000.0,0006.18,0003.23,0002.74
2023-11-15 09:35:00,SystemResetWarning,0833.2,4.99,000.00,026.9,026.0,000.0,035.4,028.4,8.9,0000.0,0006.99,0003.27,0002.77
2023-11-15 09:36:00,SystemResetWarning,0833.0,4.99,000.00,026.9,025.9,000.0,035.4,028.4,8.8,0000.0,0006.52,0003.28,0002.80
2023-11-15 09:37:00,SystemResetWarning,0833.0,5.00,000.00,026.9,025.9,000.0,035.4,028.4,8.7,0000.0,0006.44,0003.33,0002.82
2023-11-15 09:38:00,SystemResetWarning,0833.1,5.01,000.00,026.9,025.9,000.0,035.4,028.4,8.6,0000.0,0006.35,0003.34,0002.84
2023-11-15 09:39:00,SystemResetWarning,0833.3,5.00,000.00,026.9,025.9,000.0,035.4,028.4,8.5,0000.0,0006.35,0003.36,0002.86
2023-11-15 09:40:00,SystemResetWarning,0833.1,5.01,000.00,026.9,025.9,000.0,035.3,028.4,8.3,0000.0,0007.23,0003.35,0002.86
2023-11-15 09:41:00,SystemResetWarning,0833.1,5.00,000.00,026.9,025.9,000.0,035.3,028.3,8.3,0000.0,0007.50,0003.37,0002.87
2023-11-15 09:42:00,SystemResetWarning,0833.2,5.00,000.00,026.9,025.9,000.0,035.3,028.3,8.3,0000.0,0007.62,0003.39,0002.89
2023-11-15 09:43:00,SystemResetWarning,0833.2,4.99,000.00,026.9,025.9,000.0,035.3,028.3,7.9,0000.0,0007.84,0003.43,0002.91
2023-11-15 09:44:00,SystemResetWarning,0833.2,5.00,000.00,026.9,025.9,000.0,035.3,028.3,7.9,0000.0,0008.33,0003.47,0002.92
2023-11-15 09:45:00,SystemResetWarning,0833.2,5.00,000.00,026.8,025.9,000.0,035.3,028.3,7.7,0000.0,0008.75,0003.51,0002.92
2023-11-15 09:46:00,SystemResetWarning,0833.2,5.00,000.00,026.8,025.9,000.0,035.3,028.3,7.4,0000.0,0008.71,0003.55,0002.95
2023-11-15 09:47:00,SystemResetWarning,0833.2,5.01,000.00,026.8,025.8,000.0,035.3,028.3,7.3,0000.0,0009.56,0003.60,0002.98
2023-11-15 09:48:00,SystemResetWarning,0833.1,5.01,000.00,026.8,025.8,000.0,035.3,028.2,7.3,0000.0,0009.95,0003.60,0003.01
2023-11-15 09:49:00,SystemResetWarning,0833.1,5.00,000.00,026.8,025.8,000.0,035.3,028.1,7.3,0000.0,0009.99,0003.67,0003.09
2023-11-15 09:50:00,SystemResetWarning,0833.1,4.99,000.00,026.8,025.8,000.0,035.3,028.1,7.4,0000.0,0010.25,0003.80,0003.16
2023-11-15 09:51:00,SystemResetWarning,0833.2,4.99,000.00,026.8,025.8,000.0,035.3,028.1,7.3,0000.0,0010.65,0003.97,0003.26
2023-11-15 09:52:00,SystemResetWarning,0833.3,4.99,000.00,026.7,025.8,000.0,035.3,028.1,7.1,0000.0,0011.69,0004.15,0003.38
2023-11-15 09:53:00,SystemResetWarning,0833.3,5.00,000.00,026.7,025.7,000.0,035.2,028.1,7.2,0000.0,0012.24,0004.28,0003.47
2023-11-15 09:54:00,SystemResetWarning,0833.3,5.00,000.00,026.7,025.7,000.0,035.2,028.2,7.2,0000.0,0013.29,0004.45,0003.60
2023-11-15 09:55:00,SystemResetWarning,0833.5,5.00,000.00,026.7,025.7,000.0,035.2,028.2,7.0,0000.0,0013.45,0004.63,0003.71
2023-11-15 09:56:00,SystemResetWarning,0833.4,5.01,000.00,026.7,025.7,000.0,035.2,028.1,7.1,0000.0,0013.35,0004.73,0003.80
2023-11-15 09:57:00,SystemResetWarning,0833.4,5.01,000.00,026.7,025.7,000.0,035.2,028.2,6.9,0000.0,0013.53,0004.84,0003.90
2023-11-15 09:58:00,SystemResetWarning,0833.5,5.01,000.00,026.7,025.7,000.0,035.2,028.1,7.0,0000.0,0013.56,0004.97,0004.00
2023-11-15 09:59:00,SystemResetWarning,0833.2,4.99,000.00,026.7,025.7,000.0,035.2,028.1,7.1,0000.0,0013.69,0005.17,0004.10
